Wrecclesham, United Kingdom

11:41 AM GMT on December 05, 2016 (GMT +0000)
Farnborough

Weather History for EGLF - August, 2013

Change the Weather History Date:

Wednesday, August 7, 2013

  Actual Average Record
Temperature  
Mean Temperature 60 °F -  
Max Temperature 72 °F - - ()
Min Temperature 48 °F - - ()
Degree Days  
Heating Degree Days 5    
Growing Degree Days 10 (Base 50)    
Moisture  
Dew Point 49 °F    
Average Humidity 57    
Maximum Humidity 100    
Minimum Humidity 33    
Precipitation  
Precipitation 0.00 in - - ()
Sea Level Pressure  
Sea Level Pressure 29.95 in    
Wind  
Wind Speed 7 mph ()    
Max Wind Speed 13 mph    
Max Gust Speed -    
Visibility 13.1 miles    
Events      
T = Trace of Precipitation, MM = Missing Value Source: Averaged Metar Reports

Daily Weather History Graph

Daily Weather History Graph

Search for Another Location

Airport or City:

Trip Planner

Search our weather history database for the weather conditions in past years. The results will help you decide how hot, cold, wet, or windy it might be!

Date:

Astronomy

Aug. 07, 2013 Rise Set
Actual Time 5:36 AM BST 8:39 PM BST
Civil Twilight 4:57 AM BST 9:18 PM BST
Nautical Twilight 4:06 AM BST 10:09 PM BST
Astronomical Twilight 3:01 AM BST 11:13 PM BST
Moon 6:22 AM BST (8/7) 8:23 PM BST (8/7)
Length of Visible Light 16h 20m
Length of Day
15h 02m
New Moon, 0% of the Moon is Illuminated
Aug 7
New Moon
Aug 14
First Quarter
Aug 21
Full
Aug 28
Last Quarter
Sep 5
New

Hourly Weather History & Observations

Time (BST) Temp. Dew Point Humidity Pressure Visibility Wind Dir Wind Speed Gust Speed Precip Events Conditions
12:50 AM 56 °F 53 °F 87% 29.95 in 16 mi WSW 3.5 mph - -   Mostly Cloudy
3:50 AM 52 °F 50 °F 90% 29.95 in 15 mi WSW 1.2 mph - -   Scattered Clouds
6:50 AM 53 °F 52 °F 95% 29.93 in 12 mi West 1.2 mph - -   Partly Cloudy
6:50 AM 51.8 °F 51.8 °F 100% 29.92 in - SW 4.6 mph - N/A   Clear
7:20 AM 55.4 °F 53.6 °F 94% 29.92 in - Variable 2.3 mph - N/A   Clear
7:50 AM 59.0 °F 55.4 °F 88% 29.92 in - NNW 4.6 mph - N/A   Clear
8:20 AM 60.8 °F 55.4 °F 82% 29.92 in - North 5.8 mph - N/A   Clear
8:50 AM 60.8 °F 55.4 °F 82% 29.92 in - NE 6.9 mph - N/A   Clear
9:20 AM 62.6 °F 55.4 °F 77% 29.92 in - NE 8.1 mph - N/A   Clear
9:50 AM 65 °F 55 °F 62% 29.93 in 15 mi NE 9.2 mph - -   Scattered Clouds
9:50 AM 64.4 °F 53.6 °F 68% 29.92 in - NE 11.5 mph - N/A   Clear
10:20 AM 64.4 °F 51.8 °F 64% 29.95 in - NE 11.5 mph - N/A   Clear
10:50 AM 64.4 °F 50.0 °F 59% 29.92 in - NE 11.5 mph - N/A   Clear
11:20 AM 64.4 °F 48.2 °F 56% 29.92 in - NE 11.5 mph - N/A   Clear
11:50 AM 68.0 °F 50.0 °F 52% 29.92 in - ENE 12.7 mph - N/A   Clear
12:20 PM 68.0 °F 46.4 °F 46% 29.92 in - NNE 12.7 mph - N/A   Clear
12:50 PM 69 °F 47 °F 34% 29.94 in 19 mi NE 10.4 mph - -   Scattered Clouds
12:50 PM 68.0 °F 44.6 °F 43% 29.95 in - NNE 12.7 mph - N/A   Clear
1:20 PM 68.0 °F 46.4 °F 46% 29.95 in - NNE 12.7 mph - N/A   Clear
1:50 PM 69.8 °F 46.4 °F 43% 29.95 in - NE 11.5 mph - N/A   Clear
2:20 PM 71.6 °F 46.4 °F 41% 29.95 in 6.2 mi North 12.7 mph - N/A   Partly Cloudy
2:50 PM 71.6 °F 48.2 °F 43% 29.95 in 6.2 mi North 9.2 mph - N/A   Partly Cloudy
3:20 PM 69.8 °F 46.4 °F 43% 29.95 in 6.2 mi North 10.4 mph - N/A   Partly Cloudy
3:50 PM 71 °F 48 °F 33% 29.95 in 18 mi NNE 10.4 mph - -   Mostly Cloudy
3:50 PM 71.6 °F 46.4 °F 41% 29.95 in - North 10.4 mph - N/A   Clear
4:20 PM 71.6 °F 46.4 °F 41% 29.95 in - NE 10.4 mph - N/A   Clear
4:50 PM 69.8 °F 46.4 °F 43% 29.95 in - NE 11.5 mph - N/A   Clear
5:20 PM 69.8 °F 46.4 °F 43% 29.95 in - NE 12.7 mph - N/A   Clear
5:50 PM 69.8 °F 46.4 °F 43% 29.95 in - NE 10.4 mph - N/A   Clear
6:20 PM 69.8 °F 46.4 °F 43% 29.95 in - NE 11.5 mph - N/A   Clear
6:50 PM 69 °F 47 °F 34% 29.97 in 18 mi NNE 6.9 mph - -   Scattered Clouds
6:50 PM 69.8 °F 46.4 °F 43% 29.98 in - NNE 9.2 mph - N/A   Clear
7:20 PM 68.0 °F 44.6 °F 43% 29.98 in - NNE 9.2 mph - N/A   Clear
7:50 PM 68.0 °F 44.6 °F 43% 29.98 in - North 8.1 mph - N/A   Clear
8:20 PM 66.2 °F 46.4 °F 49% 30.01 in - NNE 6.9 mph - N/A   Clear
8:50 PM 66.2 °F 46.4 °F 49% 30.01 in - NNE 5.8 mph - N/A   Clear
9:20 PM 64.4 °F 46.4 °F 52% 30.01 in - NNE 3.5 mph - N/A   Clear
9:50 PM 55 °F 47 °F 66% 30.03 in 13 mi NE 1.2 mph - -   Scattered Clouds